Location: Artiguedieu
(43.5000°N, 0.5454°E)
Time: 13:15:04
(UTC+00:00)

Vanguard 2 Rocket - Visible Passes

Search period start: 02 August 2021 00:00
Search period end: 12 August 2021 00:00
Orbit: 555 x 3325 km, 32.9° (Epoch: 01 August)

Date Brightness Start Highest point End Pass type
(mag) Time Alt. Az. Time Alt. Az. Time Alt. Az.
07 Aug 8.7 04:20:32 10° SSW 04:23:57 14° SSE 04:26:43 10° SE visible
08 Aug 9.1 03:21:06 10° S 03:24:22 13° SSE 03:27:05 10° SE visible
09 Aug 9.4 02:24:25 11° SSE 02:24:36 11° SSE 02:26:37 10° SE visible
10 Aug 8.7 03:33:42 13° SSW 03:38:16 20° SSE 03:42:30 10° ESE visible
11 Aug 9.1 02:37:10 18° S 02:38:31 19° SSE 02:43:11 10° ESE visible
